Time,TemperatureF,DewpointF,PressureIn,WindDirection,WindDirectionDegrees,WindSpeedMPH,WindSpeedGustMPH,Humidity,HourlyPrecipIn,Conditions,Clouds,dailyrainin,SoftwareType,DateUTC
2013-01-11 00:00:00,37.6,23.7,30.03,NNE,22,2.3,2.3,57,0.00,CLR,,0.00,WeatherDisplay:10.37,2013-01-11 05:00:00,
2013-01-11 00:03:00,37.6,23.7,30.03,North,0,0.0,0.0,57,0.00,CLR,,0.00,WeatherDisplay:10.37,2013-01-11 05:03:00,
2013-01-11 00:08:00,37.6,23.7,30.03,NNE,22,0.0,0.0,57,0.00,CLR,,0.00,WeatherDisplay:10.37,2013-01-11 05:08:00,
2013-01-11 00:13:00,37.6,23.7,30.03,NE,45,0.0,0.0,57,0.00,CLR,,0.00,WeatherDisplay:10.37,2013-01-11 05:13:00,
2013-01-11 00:18:00,37.6,23.7,30.03,NNW,338,0.0,0.0,57,0.00,CLR,,0.00,WeatherDisplay:10.37,2013-01-11 05:18:00,
2013-01-11 00:23:00,37.6,23.7,30.03,NNW,338,2.3,0.0,57,0.00,CLR,,0.00,WeatherDisplay:10.37,2013-01-11 05:23:00,
2013-01-11 00:28:00,37.6,23.7,30.03,North,0,1.4,1.4,57,0.00,CLR,,0.00,WeatherDisplay:10.37,2013-01-11 05:28:00,
2013-01-11 00:33:00,37.6,23.7,30.03,North,0,2.3,2.3,57,0.00,CLR,,0.00,WeatherDisplay:10.37,2013-01-11 05:33:00,
2013-01-11 00:39:00,37.6,23.7,30.03,NNW,338,3.5,3.5,57,0.00,CLR,,0.00,WeatherDisplay:10.37,2013-01-11 05:39:00,
2013-01-11 00:44:00,37.6,23.7,30.03,NNW,338,2.3,2.3,57,0.00,CLR,,0.00,WeatherDisplay:10.37,2013-01-11 05:44:00,
2013-01-11 00:49:00,37.6,23.7,30.03,WNW,292,1.1,1.6,57,0.00,CLR,,0.00,WeatherDisplay:10.37,2013-01-11 05:49:00,
2013-01-11 00:54:00,37.6,23.7,30.03,NE,45,1.1,1.1,57,0.00,CLR,,0.00,WeatherDisplay:10.37,2013-01-11 05:54:00,
2013-01-11 00:59:00,37.6,23.7,30.03,SSE,158,0.0,0.0,57,0.00,CLR,,0.00,WeatherDisplay:10.37,2013-01-11 05:59:00,
2013-01-11 01:04:00,37.6,23.7,30.03,North,0,0.0,0.0,57,0.00,CLR,,0.00,WeatherDisplay:10.37,2013-01-11 06:04:00,
2013-01-11 01:09:00,37.6,23.7,30.03,NNW,338,2.3,2.3,57,0.00,CLR,,0.00,WeatherDisplay:10.37,2013-01-11 06:09:00,
2013-01-11 01:14:00,37.6,23.7,30.03,North,0,2.4,2.4,57,0.00,CLR,,0.00,WeatherDisplay:10.37,2013-01-11 06:14:00,
2013-01-11 01:19:00,37.6,23.7,30.03,NNE,22,2.4,2.4,57,0.00,CLR,,0.00,WeatherDisplay:10.37,2013-01-11 06:19:00,
2013-01-11 01:24:00,37.6,23.7,30.00,NNW,338,2.4,2.4,57,0.00,CLR,,0.00,WeatherDisplay:10.37,2013-01-11 06:24:00,
2013-01-11 01:29:00,37.6,23.7,30.00,NNE,22,4.0,4.0,57,0.00,CLR,,0.00,WeatherDisplay:10.37,2013-01-11 06:29:00,
2013-01-11 01:34:00,37.6,23.7,30.00,NNW,338,2.3,2.3,57,0.00,CLR,,0.00,WeatherDisplay:10.37,2013-01-11 06:34:00,
2013-01-11 01:39:00,37.6,23.7,30.00,NNW,338,2.3,2.3,57,0.00,CLR,,0.00,WeatherDisplay:10.37,2013-01-11 06:39:00,
2013-01-11 01:44:00,37.6,23.7,30.00,NNE,22,2.3,2.3,57,0.00,CLR,,0.00,WeatherDisplay:10.37,2013-01-11 06:44:00,
2013-01-11 01:49:00,37.6,23.7,30.00,NNW,338,4.6,4.6,57,0.00,CLR,,0.00,WeatherDisplay:10.37,2013-01-11 06:49:00,
2013-01-11 01:54:00,37.6,23.7,30.03,NNW,338,2.3,2.3,57,0.00,CLR,,0.00,WeatherDisplay:10.37,2013-01-11 06:54:00,
2013-01-11 01:59:00,37.6,23.7,30.03,NNW,338,2.3,2.3,57,0.00,CLR,,0.00,WeatherDisplay:10.37,2013-01-11 06:59:00,
2013-01-11 02:04:00,37.6,23.7,30.03,NNW,338,2.3,2.6,57,0.00,CLR,,0.00,WeatherDisplay:10.37,2013-01-11 07:04:00,
2013-01-11 02:09:00,37.6,23.7,30.00,NNW,338,1.4,0.0,57,0.00,CLR,,0.00,WeatherDisplay:10.37,2013-01-11 07:09:00,
2013-01-11 02:14:00,37.6,23.7,30.00,NNW,338,2.9,2.9,57,0.00,CLR,,0.00,WeatherDisplay:10.37,2013-01-11 07:14:00,
2013-01-11 02:19:00,37.6,23.7,30.00,NNE,22,2.3,2.3,57,0.00,CLR,,0.00,WeatherDisplay:10.37,2013-01-11 07:19:00,
2013-01-11 02:24:00,37.6,23.7,30.03,North,0,2.4,2.4,57,0.00,CLR,,0.00,WeatherDisplay:10.37,2013-01-11 07:24:00,
2013-01-11 02:29:00,37.6,23.7,30.03,NNW,338,2.3,2.3,57,0.00,CLR,,0.00,WeatherDisplay:10.37,2013-01-11 07:29:00,
2013-01-11 02:34:00,37.6,23.7,30.03,North,0,0.0,0.0,57,0.00,CLR,,0.00,WeatherDisplay:10.37,2013-01-11 07:34:00,
2013-01-11 02:39:00,37.6,23.7,30.03,ENE,68,2.3,2.3,57,0.00,CLR,,0.00,WeatherDisplay:10.37,2013-01-11 07:39:00,
2013-01-11 02:44:00,37.6,23.7,30.03,NNW,338,2.3,2.3,57,0.00,CLR,,0.00,WeatherDisplay:10.37,2013-01-11 07:44:00,
2013-01-11 02:49:00,37.6,23.7,30.03,NNE,22,1.1,0.0,57,0.00,CLR,,0.00,WeatherDisplay:10.37,2013-01-11 07:49:00,
2013-01-11 02:54:00,37.6,23.7,30.03,NNE,22,2.3,2.3,57,0.00,CLR,,0.00,WeatherDisplay:10.37,2013-01-11 07:54:00,
2013-01-11 02:59:00,37.6,23.7,30.03,NNW,338,1.4,1.4,57,0.00,CLR,,0.00,WeatherDisplay:10.37,2013-01-11 07:59:00,
2013-01-11 03:04:00,37.6,23.7,30.03,WNW,292,2.6,2.6,57,0.00,CLR,,0.00,WeatherDisplay:10.37,2013-01-11 08:04:00,
2013-01-11 03:09:00,37.6,23.7,30.03,NNW,338,1.1,1.1,57,0.00,CLR,,0.00,WeatherDisplay:10.37,2013-01-11 08:09:00,
2013-01-11 03:14:00,37.6,23.7,30.03,NNW,338,2.3,2.3,57,0.00,CLR,,0.00,WeatherDisplay:10.37,2013-01-11 08:14:00,
2013-01-11 03:19:00,37.6,23.7,30.03,NNW,338,2.4,2.4,57,0.00,CLR,,0.00,WeatherDisplay:10.37,2013-01-11 08:19:00,
2013-01-11 03:24:00,37.6,23.7,30.03,WNW,292,2.3,2.3,57,0.00,CLR,,0.00,WeatherDisplay:10.37,2013-01-11 08:24:00,
2013-01-11 03:29:00,37.6,23.7,30.03,NNE,22,1.4,1.4,57,0.00,CLR,,0.00,WeatherDisplay:10.37,2013-01-11 08:29:00,
2013-01-11 03:34:00,37.6,23.7,30.03,WNW,292,2.3,2.3,57,0.00,CLR,,0.00,WeatherDisplay:10.37,2013-01-11 08:34:00,
2013-01-11 03:39:00,37.6,23.7,30.03,NNE,22,1.1,0.0,57,0.00,CLR,,0.00,WeatherDisplay:10.37,2013-01-11 08:39:00,
2013-01-11 03:44:00,37.6,23.7,30.03,West,270,0.0,0.0,57,0.00,CLR,,0.00,WeatherDisplay:10.37,2013-01-11 08:44:00,
2013-01-11 03:49:00,37.6,23.7,30.03,North,0,0.0,0.0,57,0.00,CLR,,0.00,WeatherDisplay:10.37,2013-01-11 08:49:00,
2013-01-11 03:54:00,37.6,23.7,30.00,North,0,0.0,0.0,57,0.00,CLR,,0.00,WeatherDisplay:10.37,2013-01-11 08:54:00,
2013-01-11 03:59:00,37.6,23.7,30.00,NNW,338,1.4,0.0,57,0.00,CLR,,0.00,WeatherDisplay:10.37,2013-01-11 08:59:00,
2013-01-11 04:04:00,37.6,23.7,30.00,NNW,338,2.3,2.3,57,0.00,CLR,,0.00,WeatherDisplay:10.37,2013-01-11 09:04:00,
2013-01-11 04:09:00,37.6,23.7,30.00,North,0,2.4,2.4,57,0.00,CLR,,0.00,WeatherDisplay:10.37,2013-01-11 09:09:00,
2013-01-11 04:14:00,37.6,23.7,30.00,North,0,2.3,2.3,57,0.00,CLR,,0.00,WeatherDisplay:10.37,2013-01-11 09:14:00,
2013-01-11 04:19:00,37.6,23.7,30.00,NNW,338,2.4,2.4,57,0.00,CLR,,0.00,WeatherDisplay:10.37,2013-01-11 09:19:00,
2013-01-11 04:24:00,37.6,23.7,30.00,NNW,338,2.3,2.3,57,0.00,CLR,,0.00,WeatherDisplay:10.37,2013-01-11 09:24:00,
2013-01-11 04:29:00,37.6,23.7,30.00,NNW,338,2.3,2.3,57,0.00,CLR,,0.00,WeatherDisplay:10.37,2013-01-11 09:29:00,
2013-01-11 04:34:00,37.6,23.7,30.00,NNW,338,2.3,2.3,57,0.00,CLR,,0.00,WeatherDisplay:10.37,2013-01-11 09:34:00,
2013-01-11 04:39:00,37.6,23.7,29.97,North,0,2.4,2.4,57,0.00,CLR,,0.00,WeatherDisplay:10.37,2013-01-11 09:39:00,
2013-01-11 04:44:00,37.6,23.7,29.97,NNW,338,2.9,2.9,57,0.00,CLR,,0.00,WeatherDisplay:10.37,2013-01-11 09:44:00,
2013-01-11 04:49:00,37.6,23.7,29.97,NNW,338,2.3,2.3,57,0.00,CLR,,0.00,WeatherDisplay:10.37,2013-01-11 09:49:00,
2013-01-11 04:54:00,37.6,23.7,29.97,NNE,22,2.9,2.9,57,0.00,CLR,,0.00,WeatherDisplay:10.37,2013-01-11 09:54:00,
2013-01-11 04:59:00,37.6,23.7,29.97,North,0,2.3,2.3,57,0.00,CLR,,0.00,WeatherDisplay:10.37,2013-01-11 09:59:00,
2013-01-11 05:04:00,37.6,23.7,29.97,North,0,1.4,1.4,57,0.00,CLR,,0.00,WeatherDisplay:10.37,2013-01-11 10:04:00,
2013-01-11 05:09:00,37.6,23.7,29.97,NNW,338,2.3,2.3,57,0.00,CLR,,0.00,WeatherDisplay:10.37,2013-01-11 10:09:00,
2013-01-11 05:14:00,37.6,23.7,29.97,NNW,338,1.4,1.4,57,0.00,CLR,,0.00,WeatherDisplay:10.37,2013-01-11 10:14:00,
2013-01-11 05:19:00,37.6,23.7,29.97,NNW,338,0.0,0.0,57,0.00,CLR,,0.00,WeatherDisplay:10.37,2013-01-11 10:19:00,
2013-01-11 05:24:00,37.6,23.7,29.97,NNW,338,2.0,2.0,57,0.00,CLR,,0.00,WeatherDisplay:10.37,2013-01-11 10:24:00,
2013-01-11 05:29:00,37.6,23.7,29.97,NNW,338,2.4,2.4,57,0.00,CLR,,0.00,WeatherDisplay:10.37,2013-01-11 10:29:00,
2013-01-11 05:34:00,37.6,23.7,29.97,NW,315,2.3,2.3,57,0.00,CLR,,0.00,WeatherDisplay:10.37,2013-01-11 10:34:00,
2013-01-11 05:39:00,37.6,23.7,30.00,NNE,22,1.1,0.0,57,0.00,CLR,,0.00,WeatherDisplay:10.37,2013-01-11 10:39:00,
2013-01-11 05:44:00,37.6,23.7,30.00,NNE,22,2.3,2.3,57,0.00,CLR,,0.00,WeatherDisplay:10.37,2013-01-11 10:44:00,
2013-01-11 05:49:00,37.6,23.7,30.00,NNW,338,2.4,2.4,57,0.00,CLR,,0.00,WeatherDisplay:10.37,2013-01-11 10:49:00,
2013-01-11 05:54:00,37.6,23.7,30.00,NNW,338,2.3,2.3,57,0.00,CLR,,0.00,WeatherDisplay:10.37,2013-01-11 10:54:00,
2013-01-11 05:59:00,37.6,23.7,30.00,NNW,338,2.3,2.3,57,0.00,CLR,,0.00,WeatherDisplay:10.37,2013-01-11 10:59:00,
2013-01-11 06:04:00,37.6,23.7,30.00,NNW,338,1.4,1.4,57,0.00,CLR,,0.00,WeatherDisplay:10.37,2013-01-11 11:04:00,
2013-01-11 06:09:00,37.6,23.7,30.00,NNW,338,2.3,2.3,57,0.00,CLR,,0.00,WeatherDisplay:10.37,2013-01-11 11:09:00,
2013-01-11 06:14:00,37.6,23.7,30.00,NE,45,3.5,3.5,57,0.00,CLR,,0.00,WeatherDisplay:10.37,2013-01-11 11:14:00,
2013-01-11 06:19:00,37.6,23.7,30.00,NNW,338,2.6,2.6,57,0.00,CLR,,0.00,WeatherDisplay:10.37,2013-01-11 11:19:00,
2013-01-11 06:24:00,37.6,23.7,29.97,NNW,338,3.6,3.6,57,0.00,CLR,,0.00,WeatherDisplay:10.37,2013-01-11 11:24:00,
2013-01-11 06:30:00,37.6,23.7,29.97,NNW,338,2.4,2.6,57,0.00,CLR,,0.00,WeatherDisplay:10.37,2013-01-11 11:30:00,
2013-01-11 06:35:00,37.6,23.7,29.97,NNE,22,2.3,3.3,57,0.00,CLR,,0.00,WeatherDisplay:10.37,2013-01-11 11:35:00,
2013-01-11 06:40:00,37.6,23.7,29.97,NNE,22,2.6,2.6,57,0.00,CLR,,0.00,WeatherDisplay:10.37,2013-01-11 11:40:00,
2013-01-11 06:45:00,37.6,23.7,29.97,North,0,2.3,2.4,57,0.00,CLR,,0.00,WeatherDisplay:10.37,2013-01-11 11:45:00,
2013-01-11 06:50:00,37.6,23.7,29.97,NNE,22,3.5,3.5,57,0.00,CLR,,0.00,WeatherDisplay:10.37,2013-01-11 11:50:00,
2013-01-11 06:55:00,37.6,23.7,29.97,NNE,22,2.4,2.9,57,0.00,CLR,,0.00,WeatherDisplay:10.37,2013-01-11 11:55:00,
2013-01-11 07:00:00,37.6,23.7,29.97,NNE,22,2.4,2.9,57,0.00,CLR,,0.00,WeatherDisplay:10.37,2013-01-11 12:00:00,
2013-01-11 07:05:00,37.6,23.7,29.97,NNE,22,2.4,2.9,57,0.00,CLR,,0.00,WeatherDisplay:10.37,2013-01-11 12:05:00,
2013-01-11 07:10:00,37.6,23.7,30.00,NNE,22,2.4,2.9,57,0.00,CLR,,0.00,WeatherDisplay:10.37,2013-01-11 12:10:00,
2013-01-11 07:15:00,37.6,23.7,30.00,NNE,22,2.4,2.9,57,0.00,CLR,,0.00,WeatherDisplay:10.37,2013-01-11 12:15:00,
2013-01-11 07:20:00,37.6,23.7,30.00,NNE,22,2.4,2.9,57,0.00,CLR,,0.00,WeatherDisplay:10.37,2013-01-11 12:20:00,
2013-01-11 07:25:00,37.6,23.7,29.97,NNE,22,2.4,2.9,57,0.00,CLR,,0.00,WeatherDisplay:10.37,2013-01-11 12:25:00,
2013-01-11 07:30:00,37.6,23.7,29.97,East,90,2.4,2.4,57,0.00,CLR,,0.00,WeatherDisplay:10.37,2013-01-11 12:30:00,
2013-01-11 07:35:00,37.6,23.7,29.97,East,90,2.4,2.4,57,0.00,CLR,,0.00,WeatherDisplay:10.37,2013-01-11 12:35:00,
2013-01-11 07:40:00,37.6,23.7,29.97,East,90,2.4,2.4,57,0.00,CLR,,0.00,WeatherDisplay:10.37,2013-01-11 12:40:00,
2013-01-11 07:45:00,37.6,23.7,29.97,East,90,2.4,2.4,57,0.00,CLR,,0.00,WeatherDisplay:10.37,2013-01-11 12:45:00,
2013-01-11 07:50:00,37.6,23.7,29.97,East,90,2.4,2.4,57,0.00,CLR,,0.00,WeatherDisplay:10.37,2013-01-11 12:50:00,
2013-01-11 07:55:00,37.6,23.7,29.97,East,90,2.4,2.4,57,0.00,CLR,,0.00,WeatherDisplay:10.37,2013-01-11 12:55:00,
2013-01-11 08:00:00,37.6,23.7,29.97,ENE,68,2.3,2.3,57,0.00,CLR,,0.00,WeatherDisplay:10.37,2013-01-11 13:00:00,
2013-01-11 08:05:00,37.6,23.7,29.97,ENE,68,2.4,3.8,57,0.00,CLR,,0.00,WeatherDisplay:10.37,2013-01-11 13:05:00,
2013-01-11 08:10:00,37.6,23.7,29.97,ENE,68,2.4,3.8,57,0.00,CLR,,0.00,WeatherDisplay:10.37,2013-01-11 13:10:00,
2013-01-11 08:15:00,37.6,23.7,29.97,North,0,2.3,0.0,57,0.00,CLR,,0.00,WeatherDisplay:10.37,2013-01-11 13:15:00,
2013-01-11 08:20:00,37.6,23.7,29.97,North,0,0.0,0.0,57,0.00,CLR,,0.00,WeatherDisplay:10.37,2013-01-11 13:20:00,
2013-01-11 08:25:00,37.6,23.7,29.97,North,0,0.0,0.0,57,0.00,CLR,,0.00,WeatherDisplay:10.37,2013-01-11 13:25:00,
2013-01-11 08:30:00,37.6,23.7,29.97,North,0,0.0,0.0,57,0.00,CLR,,0.00,WeatherDisplay:10.37,2013-01-11 13:30:00,
2013-01-11 08:35:00,37.6,23.7,29.97,North,0,0.0,0.0,57,0.00,CLR,,0.00,WeatherDisplay:10.37,2013-01-11 13:35:00,
2013-01-11 08:40:00,37.6,23.7,29.97,NNE,22,2.9,2.9,57,0.00,CLR,,0.00,WeatherDisplay:10.37,2013-01-11 13:40:00,
2013-01-11 08:45:00,37.6,23.7,29.97,NNE,22,2.9,2.9,57,0.00,CLR,,0.00,WeatherDisplay:10.37,2013-01-11 13:45:00,
2013-01-11 08:50:00,37.6,23.7,29.97,NNE,22,2.9,2.9,57,0.00,CLR,,0.00,WeatherDisplay:10.37,2013-01-11 13:50:00,
2013-01-11 08:55:00,37.6,23.7,29.97,NNE,22,2.9,2.9,57,0.00,CLR,,0.00,WeatherDisplay:10.37,2013-01-11 13:55:00,
2013-01-11 09:00:00,37.6,23.7,29.97,NNE,22,2.9,2.9,57,0.00,CLR,,0.00,WeatherDisplay:10.37,2013-01-11 14:00:00,
2013-01-11 09:05:00,37.6,23.7,29.97,ENE,68,3.8,3.8,57,0.00,CLR,,0.00,WeatherDisplay:10.37,2013-01-11 14:05:00,
2013-01-11 09:10:00,37.6,23.7,29.94,NNE,22,3.5,5.4,57,0.00,CLR,,0.00,WeatherDisplay:10.37,2013-01-11 14:10:00,
2013-01-11 09:15:00,37.6,23.7,29.94,ENE,68,2.3,2.3,57,0.00,CLR,,0.00,WeatherDisplay:10.37,2013-01-11 14:15:00,
2013-01-11 09:20:00,37.6,23.7,29.94,ENE,68,1.6,2.0,57,0.00,CLR,,0.00,WeatherDisplay:10.37,2013-01-11 14:20:00,
2013-01-11 09:25:00,37.6,23.7,29.94,NNW,338,2.3,3.1,57,0.00,CLR,,0.00,WeatherDisplay:10.37,2013-01-11 14:25:00,
2013-01-11 09:30:00,37.6,23.7,29.94,NNE,22,1.4,0.0,57,0.00,CLR,,0.00,WeatherDisplay:10.37,2013-01-11 14:30:00,
2013-01-11 09:35:00,37.6,23.7,29.94,SE,135,3.6,3.6,57,0.00,CLR,,0.00,WeatherDisplay:10.37,2013-01-11 14:35:00,
2013-01-11 09:40:00,37.6,23.7,29.94,East,90,1.1,0.0,57,0.00,CLR,,0.00,WeatherDisplay:10.37,2013-01-11 14:40:00,
2013-01-11 09:45:00,37.6,23.7,29.94,ESE,112,4.6,4.6,57,0.00,CLR,,0.00,WeatherDisplay:10.37,2013-01-11 14:45:00,
2013-01-11 09:50:00,37.6,23.7,29.94,ESE,112,3.5,0.0,57,0.00,CLR,,0.00,WeatherDisplay:10.37,2013-01-11 14:50:00,
2013-01-11 09:55:00,37.6,23.7,29.94,NNE,22,3.5,3.5,57,0.00,CLR,,0.00,WeatherDisplay:10.37,2013-01-11 14:55:00,
2013-01-11 10:00:00,37.6,23.7,29.94,ENE,68,5.8,5.8,57,0.00,CLR,,0.00,WeatherDisplay:10.37,2013-01-11 15:00:00,
2013-01-11 10:05:00,37.6,23.7,29.94,ENE,68,4.6,4.6,57,0.00,CLR,,0.00,WeatherDisplay:10.37,2013-01-11 15:05:00,
2013-01-11 10:10:00,37.6,23.7,29.91,WSW,248,2.9,2.9,57,0.00,CLR,,0.00,WeatherDisplay:10.37,2013-01-11 15:10:00,
2013-01-11 10:15:00,37.6,23.7,29.91,East,90,4.6,4.6,57,0.00,CLR,,0.00,WeatherDisplay:10.37,2013-01-11 15:15:00,
2013-01-11 10:20:00,37.6,23.7,29.91,ENE,68,3.5,3.5,57,0.00,CLR,,0.00,WeatherDisplay:10.37,2013-01-11 15:20:00,
2013-01-11 10:25:00,37.6,23.7,29.88,ENE,68,3.5,3.5,57,0.00,CLR,,0.00,WeatherDisplay:10.37,2013-01-11 15:25:00,
2013-01-11 10:30:00,37.6,23.7,29.88,SE,135,3.8,3.8,57,0.00,CLR,,0.00,WeatherDisplay:10.37,2013-01-11 15:30:00,
2013-01-11 10:35:00,37.6,23.7,29.88,NNE,22,2.9,2.9,57,0.00,CLR,,0.00,WeatherDisplay:10.37,2013-01-11 15:35:00,
2013-01-11 10:40:00,37.6,23.7,29.94,SSE,158,10.4,10.4,57,0.00,CLR,,0.00,WeatherDisplay:10.37,2013-01-11 15:40:00,
2013-01-11 10:45:00,37.6,23.7,29.94,ENE,68,5.8,5.8,57,0.00,CLR,,0.00,WeatherDisplay:10.37,2013-01-11 15:45:00,
2013-01-11 10:50:00,37.6,23.7,29.94,NE,45,3.5,3.5,57,0.00,CLR,,0.00,WeatherDisplay:10.37,2013-01-11 15:50:00,
2013-01-11 10:55:00,37.6,23.7,29.94,SSE,158,2.3,2.3,57,0.00,CLR,,0.00,WeatherDisplay:10.37,2013-01-11 15:55:00,
2013-01-11 11:00:00,37.6,23.7,29.94,ESE,112,6.9,6.9,57,0.00,CLR,,0.00,WeatherDisplay:10.37,2013-01-11 16:00:00,
2013-01-11 11:05:00,37.6,23.7,29.94,SE,135,4.6,4.6,57,0.00,CLR,,0.00,WeatherDisplay:10.37,2013-01-11 16:05:00,
2013-01-11 11:10:00,37.6,23.7,29.94,WSW,248,3.8,3.8,57,0.00,CLR,,0.00,WeatherDisplay:10.37,2013-01-11 16:10:00,
2013-01-11 11:15:00,37.6,23.7,29.94,WSW,248,3.8,3.8,57,0.00,CLR,,0.00,WeatherDisplay:10.37,2013-01-11 16:15:00,
2013-01-11 11:20:00,37.6,23.7,29.94,WSW,248,3.8,3.8,57,0.00,CLR,,0.00,WeatherDisplay:10.37,2013-01-11 16:20:00,
2013-01-11 11:25:00,37.6,23.7,29.88,WSW,248,3.8,3.8,57,0.00,CLR,,0.00,WeatherDisplay:10.37,2013-01-11 16:25:00,
2013-01-11 11:30:00,37.6,23.7,29.88,WSW,248,3.8,3.8,57,0.00,CLR,,0.00,WeatherDisplay:10.37,2013-01-11 16:30:00,
2013-01-11 11:35:00,37.6,23.7,29.88,ESE,112,4.0,4.5,57,0.00,CLR,,0.00,WeatherDisplay:10.37,2013-01-11 16:35:00,
2013-01-11 11:40:00,37.6,23.7,29.85,SE,135,6.2,6.2,57,0.00,CLR,,0.00,WeatherDisplay:10.37,2013-01-11 16:40:00,
2013-01-11 11:45:00,37.6,23.7,29.85,East,90,8.1,8.1,57,0.00,CLR,,0.00,WeatherDisplay:10.37,2013-01-11 16:45:00,
2013-01-11 11:51:00,37.6,23.7,29.85,SE,135,4.0,4.0,57,0.00,CLR,,0.00,WeatherDisplay:10.37,2013-01-11 16:51:00,
2013-01-11 11:56:00,37.6,23.7,29.83,SSE,158,6.2,6.2,57,0.00,CLR,,0.00,WeatherDisplay:10.37,2013-01-11 16:56:00,
2013-01-11 12:01:00,37.6,23.7,29.83,East,90,6.2,6.2,57,0.00,CLR,,0.00,WeatherDisplay:10.37,2013-01-11 17:01:00,
2013-01-11 12:06:00,37.6,23.7,29.83,East,90,4.9,4.9,57,0.00,CLR,,0.00,WeatherDisplay:10.37,2013-01-11 17:06:00,
2013-01-11 12:11:00,37.6,23.7,29.85,East,90,4.6,4.6,57,0.00,CLR,,0.00,WeatherDisplay:10.37,2013-01-11 17:11:00,
2013-01-11 12:16:00,37.6,23.7,29.85,SE,135,4.6,4.6,57,0.00,CLR,,0.00,WeatherDisplay:10.37,2013-01-11 17:16:00,
2013-01-11 12:21:00,37.6,23.7,29.85,SSE,158,2.3,2.6,57,0.00,CLR,,0.00,WeatherDisplay:10.37,2013-01-11 17:21:00,
2013-01-11 12:26:00,37.6,23.7,29.83,SSE,158,4.6,4.6,57,0.00,CLR,,0.00,WeatherDisplay:10.37,2013-01-11 17:26:00,
2013-01-11 12:31:00,37.6,23.7,29.83,SE,135,10.4,10.4,57,0.00,CLR,,0.00,WeatherDisplay:10.37,2013-01-11 17:31:00,
2013-01-11 12:36:00,37.6,23.7,29.83,SE,135,4.6,4.6,57,0.00,CLR,,0.00,WeatherDisplay:10.37,2013-01-11 17:36:00,
2013-01-11 12:41:00,37.6,23.7,29.83,SE,135,6.2,6.2,57,0.00,CLR,,0.00,WeatherDisplay:10.37,2013-01-11 17:41:00,
2013-01-11 12:46:00,37.6,23.7,29.83,East,90,3.8,3.8,57,0.00,CLR,,0.00,WeatherDisplay:10.37,2013-01-11 17:46:00,
2013-01-11 12:51:00,37.6,23.7,29.83,SE,135,6.9,6.9,57,0.00,CLR,,0.00,WeatherDisplay:10.37,2013-01-11 17:51:00,
2013-01-11 12:56:00,37.6,23.7,29.80,SSE,158,4.6,4.6,57,0.00,CLR,,0.00,WeatherDisplay:10.37,2013-01-11 17:56:00,
2013-01-11 13:01:00,37.6,23.7,29.80,ESE,112,6.9,6.9,57,0.00,CLR,,0.00,WeatherDisplay:10.37,2013-01-11 18:01:00,
2013-01-11 13:06:00,37.6,23.7,29.80,ESE,112,5.8,5.8,57,0.00,CLR,,0.00,WeatherDisplay:10.37,2013-01-11 18:06:00,
2013-01-11 13:11:00,37.6,23.7,29.80,SE,135,6.0,6.0,57,0.00,CLR,,0.00,WeatherDisplay:10.37,2013-01-11 18:11:00,
2013-01-11 13:16:00,37.6,23.7,29.80,SSE,158,7.4,7.4,57,0.00,CLR,,0.00,WeatherDisplay:10.37,2013-01-11 18:16:00,
2013-01-11 13:21:00,37.6,23.7,29.80,SSE,158,7.4,7.4,57,0.00,CLR,,0.00,WeatherDisplay:10.37,2013-01-11 18:21:00,
2013-01-11 13:26:00,37.6,23.7,29.80,SSE,158,7.4,7.4,57,0.00,CLR,,0.00,WeatherDisplay:10.37,2013-01-11 18:26:00,
2013-01-11 13:31:00,37.6,23.7,29.80,SSE,158,7.4,7.4,57,0.00,CLR,,0.00,WeatherDisplay:10.37,2013-01-11 18:31:00,
2013-01-11 13:36:00,37.6,23.7,29.80,ENE,68,6.9,6.9,57,0.00,CLR,,0.00,WeatherDisplay:10.37,2013-01-11 18:36:00,
2013-01-11 13:41:00,37.6,23.7,29.80,ENE,68,3.5,3.5,57,0.00,CLR,,0.00,WeatherDisplay:10.37,2013-01-11 18:41:00,
2013-01-11 13:46:00,37.6,23.7,29.80,SSE,158,2.4,2.4,57,0.00,CLR,,0.00,WeatherDisplay:10.37,2013-01-11 18:46:00,
2013-01-11 13:51:00,37.6,23.7,29.80,SSW,202,1.6,1.6,57,0.00,CLR,,0.00,WeatherDisplay:10.37,2013-01-11 18:51:00,
2013-01-11 13:56:00,37.6,23.7,29.80,SSW,202,1.6,1.6,57,0.00,CLR,,0.00,WeatherDisplay:10.37,2013-01-11 18:56:00,
2013-01-11 14:01:00,37.6,23.7,29.80,SSW,202,1.6,1.6,57,0.00,CLR,,0.00,WeatherDisplay:10.37,2013-01-11 19:01:00,
2013-01-11 14:06:00,37.6,23.7,29.80,SSW,202,1.6,1.6,57,0.00,CLR,,0.00,WeatherDisplay:10.37,2013-01-11 19:06:00,
2013-01-11 14:11:00,37.6,23.7,29.80,NE,45,1.4,1.4,57,0.00,CLR,,0.00,WeatherDisplay:10.37,2013-01-11 19:11:00,
2013-01-11 14:16:00,37.6,23.7,29.80,NE,45,1.4,1.4,57,0.00,CLR,,0.00,WeatherDisplay:10.37,2013-01-11 19:16:00,
2013-01-11 14:21:00,37.6,23.7,29.80,ESE,112,4.6,4.6,57,0.00,CLR,,0.00,WeatherDisplay:10.37,2013-01-11 19:21:00,
2013-01-11 14:26:00,37.6,23.7,29.80,ENE,68,3.5,3.6,57,0.00,CLR,,0.00,WeatherDisplay:10.37,2013-01-11 19:26:00,
2013-01-11 14:31:00,37.6,23.7,29.80,NE,45,3.5,4.0,57,0.00,CLR,,0.00,WeatherDisplay:10.37,2013-01-11 19:31:00,
2013-01-11 14:36:00,37.6,23.7,29.80,SSE,158,2.6,2.9,57,0.00,CLR,,0.00,WeatherDisplay:10.37,2013-01-11 19:36:00,
2013-01-11 14:41:00,37.6,23.7,29.77,NE,45,1.4,1.4,57,0.00,CLR,,0.00,WeatherDisplay:10.37,2013-01-11 19:41:00,
2013-01-11 14:46:00,37.6,23.7,29.77,ESE,112,2.6,3.1,57,0.00,CLR,,0.00,WeatherDisplay:10.37,2013-01-11 19:46:00,
2013-01-11 14:51:00,37.6,23.7,29.77,NNE,22,2.4,2.4,57,0.00,CLR,,0.00,WeatherDisplay:10.37,2013-01-11 19:51:00,
2013-01-11 14:56:00,37.6,23.7,29.77,ESE,112,3.5,3.5,57,0.00,CLR,,0.00,WeatherDisplay:10.37,2013-01-11 19:56:00,
2013-01-11 15:01:00,37.6,23.7,29.77,ENE,68,1.1,1.1,57,0.00,CLR,,0.00,WeatherDisplay:10.37,2013-01-11 20:01:00,
2013-01-11 15:06:00,37.6,23.7,29.77,NE,45,1.6,1.6,57,0.00,CLR,,0.00,WeatherDisplay:10.37,2013-01-11 20:06:00,
2013-01-11 15:11:00,37.6,23.7,29.77,ENE,68,1.6,2.2,57,0.00,CLR,,0.00,WeatherDisplay:10.37,2013-01-11 20:11:00,
2013-01-11 15:16:00,37.6,23.7,29.77,ENE,68,1.6,2.2,57,0.00,CLR,,0.00,WeatherDisplay:10.37,2013-01-11 20:16:00,
2013-01-11 15:21:00,37.6,23.7,29.77,East,90,2.3,2.3,57,0.00,CLR,,0.00,WeatherDisplay:10.37,2013-01-11 20:21:00,
2013-01-11 15:26:00,37.6,23.7,29.77,East,90,2.3,2.3,57,0.00,CLR,,0.00,WeatherDisplay:10.37,2013-01-11 20:26:00,
2013-01-11 15:31:00,37.6,23.7,29.77,NE,45,0.0,0.0,57,0.00,CLR,,0.00,WeatherDisplay:10.37,2013-01-11 20:31:00,
2013-01-11 15:36:00,37.6,23.7,29.77,NNE,22,0.0,0.0,57,0.00,CLR,,0.00,WeatherDisplay:10.37,2013-01-11 20:36:00,
2013-01-11 15:41:00,37.6,23.7,29.77,SE,135,1.1,1.1,57,0.00,CLR,,0.00,WeatherDisplay:10.37,2013-01-11 20:41:00,
2013-01-11 15:46:00,37.6,23.7,29.77,SE,135,2.3,0.0,57,0.04,RA,,0.04,WeatherDisplay:10.37,2013-01-11 20:46:00,
2013-01-11 15:51:00,37.6,23.7,29.77,NE,45,2.3,2.3,57,0.04,RA,,0.04,WeatherDisplay:10.37,2013-01-11 20:51:00,
2013-01-11 15:56:00,37.6,23.7,29.74,NNW,338,2.3,2.4,57,0.04,CLR,,0.04,WeatherDisplay:10.37,2013-01-11 20:56:00,
2013-01-11 16:01:00,37.6,23.7,29.74,NNE,22,2.6,0.0,57,0.09,RA,,0.09,WeatherDisplay:10.37,2013-01-11 21:01:00,
2013-01-11 16:06:00,37.6,23.7,29.74,NE,45,0.9,0.0,57,0.09,RA,,0.09,WeatherDisplay:10.37,2013-01-11 21:06:00,
2013-01-11 16:11:00,37.6,23.7,29.74,NE,45,6.9,6.9,57,0.09,CLR,,0.09,WeatherDisplay:10.37,2013-01-11 21:11:00,
2013-01-11 16:16:00,37.6,23.7,29.74,NE,45,5.8,5.8,57,0.09,CLR,,0.09,WeatherDisplay:10.37,2013-01-11 21:16:00,
2013-01-11 16:21:00,37.6,23.7,29.74,ENE,68,5.8,5.8,57,0.09,CLR,,0.09,WeatherDisplay:10.37,2013-01-11 21:21:00,
2013-01-11 16:26:00,37.6,23.7,29.74,NNE,22,9.2,9.2,57,0.09,CLR,,0.09,WeatherDisplay:10.37,2013-01-11 21:26:00,
2013-01-11 16:31:00,37.6,23.7,29.74,East,90,5.8,5.8,57,0.09,CLR,,0.09,WeatherDisplay:10.37,2013-01-11 21:31:00,
2013-01-11 16:36:00,37.6,23.7,29.74,ENE,68,8.1,8.1,57,0.12,RA,,0.12,WeatherDisplay:10.37,2013-01-11 21:36:00,
2013-01-11 16:42:00,37.6,23.7,29.68,SE,135,2.3,2.4,57,0.12,RA,,0.12,WeatherDisplay:10.37,2013-01-11 21:42:00,
2013-01-11 16:47:00,37.6,23.7,29.68,ESE,112,4.6,4.6,57,0.08,,,0.12,WeatherDisplay:10.37,2013-01-11 21:47:00,
2013-01-11 16:52:00,37.6,23.7,29.68,NNW,338,3.5,3.5,57,0.08,CLR,,0.12,WeatherDisplay:10.37,2013-01-11 21:52:00,
2013-01-11 16:57:00,37.6,23.7,29.74,ENE,68,1.1,1.6,57,0.13,RA,,0.17,WeatherDisplay:10.37,2013-01-11 21:57:00,
2013-01-11 17:02:00,37.6,23.7,29.74,WNW,292,3.5,3.5,57,0.12,RA,,0.21,WeatherDisplay:10.37,2013-01-11 22:02:00,
2013-01-11 17:07:00,37.6,23.7,29.74,NNW,338,1.4,1.4,57,0.12,RA,,0.21,WeatherDisplay:10.37,2013-01-11 22:07:00,
2013-01-11 17:12:00,37.6,23.7,29.74,ENE,68,3.5,3.5,57,0.16,RA,,0.25,WeatherDisplay:10.37,2013-01-11 22:12:00,
2013-01-11 17:17:00,37.6,23.7,29.74,NE,45,2.6,2.6,57,0.16,RA,,0.25,WeatherDisplay:10.37,2013-01-11 22:17:00,
2013-01-11 17:22:00,37.6,23.7,29.74,NNE,22,1.6,1.6,57,0.16,,,0.25,WeatherDisplay:10.37,2013-01-11 22:22:00,
2013-01-11 17:27:00,37.6,23.7,29.74,NNE,22,2.3,2.3,57,0.16,CLR,,0.25,WeatherDisplay:10.37,2013-01-11 22:27:00,
2013-01-11 17:32:00,37.6,23.7,29.74,NNW,338,2.3,2.3,57,0.16,CLR,,0.25,WeatherDisplay:10.37,2013-01-11 22:32:00,
2013-01-11 17:37:00,37.6,23.7,29.74,NNW,338,1.4,1.6,57,0.13,CLR,,0.25,WeatherDisplay:10.37,2013-01-11 22:37:00,
2013-01-11 17:42:00,37.6,23.7,29.74,ENE,68,2.3,2.3,57,0.13,CLR,,0.25,WeatherDisplay:10.37,2013-01-11 22:42:00,
2013-01-11 17:47:00,37.6,23.7,29.74,NE,45,2.4,2.6,57,0.13,CLR,,0.25,WeatherDisplay:10.37,2013-01-11 22:47:00,
2013-01-11 17:52:00,37.6,23.7,29.74,NNE,22,2.9,2.9,57,0.17,RA,,0.29,WeatherDisplay:10.37,2013-01-11 22:52:00,
2013-01-11 17:57:00,37.6,23.7,29.74,NNE,22,0.0,0.9,57,0.12,RA,,0.29,WeatherDisplay:10.37,2013-01-11 22:57:00,
2013-01-11 18:02:00,37.6,23.7,29.74,NNE,22,2.3,2.3,57,0.08,,,0.29,WeatherDisplay:10.37,2013-01-11 23:02:00,
2013-01-11 18:07:00,37.6,23.7,29.74,ENE,68,2.6,2.6,57,0.08,CLR,,0.29,WeatherDisplay:10.37,2013-01-11 23:07:00,
2013-01-11 18:12:00,37.6,23.7,29.74,NE,45,3.5,3.5,57,0.04,CLR,,0.29,WeatherDisplay:10.37,2013-01-11 23:12:00,
2013-01-11 18:17:00,37.6,23.7,29.74,NNE,22,3.6,3.6,57,0.04,CLR,,0.29,WeatherDisplay:10.37,2013-01-11 23:17:00,
2013-01-11 18:22:00,37.6,23.7,29.74,NNE,22,3.6,3.6,57,0.04,CLR,,0.29,WeatherDisplay:10.37,2013-01-11 23:22:00,
2013-01-11 18:27:00,37.6,23.7,29.71,NNE,22,2.3,2.4,57,0.04,CLR,,0.29,WeatherDisplay:10.37,2013-01-11 23:27:00,
2013-01-11 18:32:00,37.6,23.7,29.71,NNE,22,2.6,2.6,57,0.04,CLR,,0.29,WeatherDisplay:10.37,2013-01-11 23:32:00,
2013-01-11 18:37:00,37.6,23.7,29.71,NNE,22,2.3,2.3,57,0.04,CLR,,0.29,WeatherDisplay:10.37,2013-01-11 23:37:00,
2013-01-11 18:42:00,37.6,23.7,29.71,NNE,22,2.3,2.3,57,0.04,CLR,,0.29,WeatherDisplay:10.37,2013-01-11 23:42:00,
2013-01-11 18:47:00,37.6,23.7,29.71,NNE,22,3.8,3.8,57,0.04,CLR,,0.29,WeatherDisplay:10.37,2013-01-11 23:47:00,
2013-01-11 18:52:00,37.6,23.7,29.71,NNE,22,3.5,3.5,57,0.04,RA,,0.33,WeatherDisplay:10.37,2013-01-11 23:52:00,
2013-01-11 18:57:00,37.6,23.7,29.71,NNE,22,3.5,3.5,57,0.04,RA,,0.33,WeatherDisplay:10.37,2013-01-11 23:57:00,
2013-01-11 19:02:00,37.6,23.7,29.71,NNE,22,2.6,2.6,57,0.04,CLR,,0.33,WeatherDisplay:10.37,2013-01-12 00:02:00,
2013-01-11 19:07:00,37.6,23.7,29.71,NNE,22,2.9,2.9,57,0.04,CLR,,0.33,WeatherDisplay:10.37,2013-01-12 00:07:00,
2013-01-11 19:12:00,37.6,23.7,29.71,NNE,22,2.6,2.6,57,0.09,RA,,0.38,WeatherDisplay:10.37,2013-01-12 00:12:00,
2013-01-11 19:17:00,37.6,23.7,29.71,NNE,22,3.5,3.5,57,0.09,RA,,0.38,WeatherDisplay:10.37,2013-01-12 00:17:00,
2013-01-11 19:22:00,37.6,23.7,29.71,NNE,22,3.5,3.5,57,0.09,,,0.38,WeatherDisplay:10.37,2013-01-12 00:22:00,
2013-01-11 19:27:00,37.6,23.7,29.68,NNE,22,3.6,3.6,57,0.09,CLR,,0.38,WeatherDisplay:10.37,2013-01-12 00:27:00,
2013-01-11 19:32:00,37.6,23.7,29.68,NNE,22,3.5,3.5,57,0.09,CLR,,0.38,WeatherDisplay:10.37,2013-01-12 00:32:00,
2013-01-11 19:37:00,37.6,23.7,29.68,North,0,2.4,2.4,57,0.09,CLR,,0.38,WeatherDisplay:10.37,2013-01-12 00:37:00,
2013-01-11 19:42:00,37.6,23.7,29.68,NNW,338,3.1,3.1,57,0.09,CLR,,0.38,WeatherDisplay:10.37,2013-01-12 00:42:00,
2013-01-11 19:47:00,37.6,23.7,29.68,North,0,2.4,2.4,57,0.09,CLR,,0.38,WeatherDisplay:10.37,2013-01-12 00:47:00,
2013-01-11 19:52:00,37.6,23.7,29.68,North,0,2.3,2.3,57,0.05,CLR,,0.38,WeatherDisplay:10.37,2013-01-12 00:52:00,
2013-01-11 19:58:00,37.6,23.7,29.68,NE,45,2.9,2.9,57,0.05,CLR,,0.38,WeatherDisplay:10.37,2013-01-12 00:58:00,
2013-01-11 20:03:00,37.6,23.7,29.68,NE,45,3.5,3.5,57,0.05,CLR,,0.38,WeatherDisplay:10.37,2013-01-12 01:03:00,
2013-01-11 20:08:00,37.6,23.7,29.65,NNE,22,2.3,2.3,57,0.05,CLR,,0.38,WeatherDisplay:10.37,2013-01-12 01:08:00,